Temp
82 82 81 81 81 81 80 80 79 79 79 79 79 78 78 77 77 75 76 76 74 72 70 65 72 72 69 71 72 73 71 72 61 64 67 65 65 65 66 68 68 65 62
82 81 80 81 81 79 79 79 79 79 80 79 79 79 79 79 77 76 76 76 75 72 64 64 68 72 70 71 71 64 72 72 70 62 61 60 61 63 63 62 62 63 63
83 82 79 79 79 78 78 78 79 78 79 80 79 79 79 79 78 77 76 76 75 72 65 64 66 69 68 72 65 69 70 70 69 63 58 59 59 60 59 59 59 60 60
83 81 79 78 78 78 78 78 78 79 79 79 80 80 80 79 79 78 77 75 68 65 63 63 63 64 68 67 71 70 69 67 68 62 58 57 58 59 58 56 56 58 57
82 81 78 78 79 79 78 78 78 79 80 81 80 80 79 78 81 77 76 72 70 61 62 63 63 64 63 65 68 69 70 71 64 59 57 57 56 56 55 56 54 55 54
81 80 80 79 79 77 77 77 77 78 79 79 78 79 76 80 48 50 59 72 69 63 61 63 65 62 63 56 57 61 69 68 64 60 58 56 56 56 56 55 54 54 51
81 81 80 79 79 78 77 77 77 76 76 76 76 76 75 74 48 49 52 71 68 63 62 62 61 64 64 70 56 55 56 55 62 68 60 59 56 60 61 58 59 58 54
81 81 81 81 79 78 77 77 75 75 74 74 74 75 75 70 48 48 52 71 69 67 63 62 61 62 63 68 71 70 71 72 70 71 64 64 63 64 65 64 61 57 56
82 81 82 81 79 78 77 75 74 74 73 74 75 74 71 66 47 47 55 71 70 67 64 61 62 62 50 51 69 67 68 65 52 51 53 50 50 51 58 64 56 57 55
83 82 83 81 79 77 77 75 74 73 74 76 74 70 59 65 46 48 60 69 68 64 61 59 52 57 46 49 66 65 61 59 60 60 57 53 57 54 53 64 68 62 58
85 83 82 79 79 78 76 75 73 75 74 73 73 67 66 65 60 47 50 70 69 63 62 57 55 45 45 47 55 67 61 63 59 62 59 58 59 61 61 64 64 64 68
85 83 81 79 81 79 75 75 73 73 71 70 70 66 65 64 50 48 48 52 56 64 62 56 52 43 44 45 54 46 47 56 62 60 58 55 59 59 60 61 61 65 72
82 80 80 80 80 78 76 73 72 72 71 70 74 71 63 64 66 46 45 47 51 65 61 49 42 42 43 45 45 46 50 63 62 59 60 62 61 64 63 61 65 72 71
81 80 78 79 77 78 79 78 75 69 68 72 73 74 69 64 68 68 64 61 50 52 49 53 49 49 48 48 50 55 66 64 62 59 60 62 63 65 64 68 66 71 72
80 80 76 79 76 77 76 74 73 72 67 74 72 75 72 69 67 60 60 66 64 54 55 58 58 56 55 56 57 59 61 61 60 62 61 60 63 65 64 68 72 70 68
79 80 81 81 80 80 76 73 43 46 46 47 46 58 72 53 45 45 44 44 45 45 58 59 57 57 57 57 58 58 60 58 62 64 65 65 66 68 68 69 72 70 69
80 81 82 79 82 79 78 74 72 58 42 42 44 43 45 48 43 42 42 42 43 49 60 60 61 59 60 60 60 61 60 63 68 69 68 69 70 70 66 70 73 73 72
82 60 82 84 83 81 80 75 73 73 71 68 46 49 42 41 41 41 42 47 55 55 59 66 67 67 65 63 65 67 69 70 70 70 71 72 70 70 70 73 74 73 74
83 83 85 85 85 79 82 82 78 75 72 71 61 50 44 38 39 41 43 65 61 60 60 61 70 69 70 70 71 71 72 73 72 72 72 72 72 73 75 76 76 55 60
84 65 71 85 83 82 82 82 82 79 76 76 69 67 59 53 56 57 65 68 69 67 65 64 67 72 70 74 75 73 73 70 72 72 72 72 74 78 78 77 78 78 76
86 83 60 85 84 84 83 82 82 82 81 79 77 70 49 72 68 69 72 71 74 73 71 70 72 73 75 72 71 69 70 71 75 76 77 78 78 77 78 79 79 79 79
87 84 84 86 86 85 84 84 83 83 83 82 80 66 39 73 77 75 75 77 79 80 82 80 79 78 78 78 77 76 76 76 77 76 78 80 79 79 79 79 79 79 79
85 84 84 85 86 67 81 85 84 83 83 83 82 73 69 78 81 79 79 79 79 81 82 81 81 81 82 81 81 81 80 79 79 79 77 79 80 79 79 78 79 78 78
84 84 84 83 84 84 83 83 84 67 83 84 82 80 77 79 82 82 82 82 81 82 82 82 82 82 82 82 82 82 82 82 82 82 79 79 79 75 80 80 80 79 79
78 78 80 80 80 81 80 83 83 83 83 84 82 82 82 82 82 83 83 84 83 83 82 83 83 82 81 81 82 82 67 46 70 54 82 81 79 79 80 81 79 79 79
59 59 60 63 71 75 76 74 72 76 79 79 79 79 79 79 79 79 79 80 83 83 82 83 82 77 75 61 53 40 37 39 56 40 74 78 79 80 80 79 79 79 79
MSLP
997.81 998.42 999.04 999.58 1000.27 1000.92 1001.52 1002.11 1002.70 1003.23 1003.66 1004.06 1004.50 1004.90 1005.22 1005.59 1005.91 1006.28 1006.26 1006.41 1006.93 1007.44 1008.03 1008.45 1008.08 1008.20 1008.43 1008.45 1008.49 1008.60 1009.21 1009.38 1009.98 1011.11 1011.63 1012.33 1012.49 1012.69 1012.74 1012.86 1013.24 1013.89 1014.48
997.99 998.66 999.32 999.97 1000.59 1001.22 1001.77 1002.30 1002.89 1003.30 1003.73 1004.08 1004.50 1004.78 1005.05 1005.27 1005.68 1006.05 1006.17 1006.33 1006.66 1007.34 1008.11 1008.34 1008.18 1008.10 1008.16 1008.35 1008.76 1008.98 1008.98 1009.40 1009.84 1011.06 1012.22 1012.83 1013.03 1013.19 1013.42 1013.63 1014.01 1014.47 1015.04
998.06 998.90 999.68 1000.29 1000.89 1001.46 1001.97 1002.52 1003.01 1003.48 1003.82 1004.12 1004.38 1004.56 1004.76 1005.01 1005.41 1005.76 1006.03 1006.20 1006.48 1007.24 1008.08 1008.36 1008.38 1008.38 1008.31 1008.27 1008.82 1008.84 1009.13 1009.59 1010.31 1011.38 1012.45 1013.17 1013.59 1013.82 1014.09 1014.58 1014.87 1015.37 1016.11
998.37 999.16 999.91 1000.52 1001.13 1001.65 1002.20 1002.75 1003.16 1003.47 1003.78 1004.07 1004.26 1004.36 1004.63 1005.04 1005.40 1005.52 1005.72 1006.20 1006.99 1007.53 1008.02 1008.48 1008.61 1008.66 1008.38 1008.59 1008.48 1008.76 1009.12 1009.80 1010.63 1011.73 1012.70 1013.32 1013.88 1014.41 1014.73 1015.11 1015.92 1016.55 1017.15
998.74 999.49 1000.16 1000.82 1001.36 1001.93 1002.39 1002.80 1003.17 1003.50 1003.68 1003.89 1004.23 1004.50 1004.87 1005.24 1005.35 1005.49 1005.83 1006.58 1007.02 1007.59 1008.01 1008.32 1008.52 1008.57 1008.44 1008.68 1008.67 1008.85 1009.18 1009.57 1010.92 1011.93 1012.65 1013.56 1014.14 1014.61 1015.22 1015.96 1016.44 1017.27 1018.27
999.09 999.81 1000.48 1000.98 1001.54 1002.07 1002.57 1002.90 1003.32 1003.52 1003.79 1003.97 1004.29 1004.57 1005.13 1005.37 1006.81 1006.91 1006.82 1006.28 1007.01 1007.64 1007.87 1008.21 1008.41 1008.51 1008.59 1008.86 1008.98 1008.87 1009.04 1009.87 1010.78 1011.84 1012.73 1013.50 1014.27 1014.85 1015.60 1016.07 1016.74 1017.73 1019.34
999.08 999.87 1000.50 1001.07 1001.54 1002.10 1002.59 1003.00 1003.37 1003.73 1003.99 1004.21 1004.54 1004.89 1005.32 1005.92 1007.09 1007.21 1007.05 1006.54 1006.84 1007.56 1007.92 1008.20 1008.48 1008.58 1008.65 1008.77 1009.21 1009.49 1009.75 1010.33 1010.62 1011.23 1012.37 1013.26 1014.19 1014.81 1015.16 1016.05 1016.77 1017.30 1018.47
999.04 999.73 1000.38 1000.83 1001.48 1002.10 1002.60 1002.98 1003.47 1003.99 1004.31 1004.61 1004.86 1005.13 1005.55 1006.51 1007.22 1007.27 1007.06 1006.74 1006.92 1007.29 1007.91 1008.24 1008.57 1008.80 1009.00 1008.94 1009.08 1009.52 1010.11 1010.67 1011.23 1011.62 1012.66 1013.26 1014.10 1014.85 1015.33 1015.85 1016.75 1017.79 1019.26
998.91 999.65 1000.14 1000.74 1001.45 1002.08 1002.55 1003.05 1003.60 1004.04 1004.46 1004.68 1005.00 1005.32 1006.04 1006.90 1007.48 1007.49 1007.32 1006.74 1006.88 1007.41 1008.07 1008.46 1008.79 1009.07 1009.38 1009.48 1009.27 1009.84 1010.40 1011.34 1012.12 1012.21 1012.98 1013.70 1014.51 1015.23 1015.60 1016.24 1017.38 1017.84 1018.92
998.79 999.46 1000.08 1000.77 1001.39 1002.01 1002.53 1003.18 1003.71 1004.20 1004.45 1004.74 1005.23 1006.10 1006.90 1007.16 1007.69 1007.63 1007.32 1007.17 1007.18 1007.80 1008.39 1008.75 1009.12 1009.39 1009.79 1009.92 1009.86 1010.34 1011.08 1012.00 1012.73 1013.54 1014.42 1014.97 1015.02 1015.77 1016.13 1016.03 1016.37 1017.34 1018.19
998.69 999.47 1000.25 1001.02 1001.45 1001.92 1002.64 1003.37 1003.84 1004.09 1004.54 1004.98 1005.41 1006.45 1006.93 1007.21 1007.86 1007.89 1007.74 1007.17 1007.34 1008.13 1008.61 1009.17 1009.64 1009.89 1010.19 1010.43 1010.57 1010.82 1011.63 1012.18 1013.02 1013.85 1014.65 1015.31 1015.77 1016.22 1016.51 1016.58 1016.70 1017.09 1017.07
998.72 999.51 1000.33 1001.13 1001.40 1002.17 1002.75 1003.40 1003.90 1004.20 1004.59 1005.02 1005.61 1006.55 1007.11 1007.62 1008.02 1008.11 1008.12 1007.83 1008.02 1008.25 1008.85 1009.47 1010.00 1010.31 1010.57 1010.98 1011.19 1011.76 1012.31 1012.75 1013.42 1014.08 1014.80 1015.48 1015.79 1016.39 1016.90 1017.20 1017.27 1017.18 1016.78
998.91 999.65 1000.46 1001.13 1001.56 1002.17 1002.65 1003.39 1003.86 1004.23 1004.48 1004.86 1004.96 1005.94 1007.18 1007.68 1007.82 1008.35 1008.49 1008.51 1008.57 1008.55 1009.35 1009.85 1010.38 1010.83 1011.19 1011.57 1011.84 1012.23 1012.65 1013.01 1013.49 1014.07 1014.63 1015.22 1015.89 1016.33 1016.88 1017.49 1017.63 1017.18 1017.47
998.97 999.79 1000.68 1000.95 1001.60 1002.10 1002.62 1003.31 1003.74 1004.42 1004.77 1004.63 1004.80 1005.30 1006.68 1007.56 1007.59 1008.04 1008.60 1008.97 1009.24 1009.71 1010.10 1010.63 1010.91 1011.26 1011.60 1011.98 1012.43 1012.79 1012.73 1013.15 1013.61 1014.19 1014.71 1015.28 1015.90 1016.28 1016.72 1017.01 1017.29 1017.06 1016.71
999.14 999.84 1000.71 1000.90 1001.68 1002.09 1002.89 1003.84 1004.17 1004.57 1004.97 1004.54 1005.02 1005.29 1006.17 1006.91 1007.44 1007.53 1008.28 1008.58 1009.17 1009.96 1010.35 1010.75 1011.07 1011.55 1011.97 1012.43 1012.53 1012.81 1013.13 1013.55 1013.91 1014.16 1014.76 1015.30 1015.67 1016.03 1016.45 1016.70 1016.42 1016.76 1016.77
999.12 999.75 999.93 1000.52 1001.25 1001.79 1002.92 1004.20 1005.31 1005.57 1005.72 1005.77 1005.91 1006.12 1006.12 1006.57 1007.68 1008.38 1008.74 1009.09 1009.71 1010.22 1010.46 1010.66 1011.17 1011.61 1011.90 1012.18 1012.39 1012.74 1013.12 1013.55 1013.70 1014.12 1014.61 1014.92 1015.08 1015.42 1015.74 1016.07 1016.07 1016.23 1016.29
998.81 999.31 999.96 1000.22 1000.69 1001.57 1002.34 1003.25 1004.49 1006.25 1006.48 1006.59 1006.73 1006.87 1006.91 1007.60 1008.27 1008.82 1009.24 1009.75 1010.07 1010.30 1010.44 1010.73 1011.04 1011.52 1011.78 1012.08 1012.33 1012.60 1012.92 1013.20 1013.33 1013.41 1013.77 1014.12 1014.43 1014.77 1015.41 1015.44 1015.39 1015.48 1015.58
998.86 999.54 999.81 999.82 1000.38 1001.16 1001.80 1003.04 1003.82 1004.49 1005.38 1006.50 1007.58 1007.58 1007.98 1008.27 1008.84 1009.20 1009.65 1010.09 1010.35 1010.39 1010.45 1010.22 1010.37 1010.72 1011.27 1011.64 1011.79 1011.97 1012.12 1012.32 1012.53 1012.83 1013.14 1013.43 1013.92 1014.31 1014.65 1014.43 1014.67 1014.78 1014.83
998.66 999.28 999.17 999.53 1000.05 1000.67 1001.39 1001.72 1002.50 1003.59 1004.46 1005.47 1007.36 1008.30 1008.76 1009.11 1009.41 1009.55 1009.58 1009.36 1009.77 1010.02 1010.25 1010.42 1009.97 1010.11 1010.58 1011.04 1011.01 1011.02 1011.23 1011.57 1011.93 1012.37 1012.84 1013.17 1013.49 1013.61 1013.57 1013.71 1013.81 1014.11 1014.15
998.46 998.97 999.10 999.49 1000.27 1000.68 1001.17 1001.43 1001.71 1002.54 1003.62 1004.37 1006.15 1007.19 1008.37 1009.07 1009.56 1009.74 1009.28 1008.76 1008.78 1009.22 1009.78 1010.04 1010.20 1009.81 1010.13 1010.32 1010.53 1010.83 1011.00 1011.54 1011.79 1012.10 1012.35 1012.67 1012.84 1012.60 1012.57 1012.92 1012.98 1012.97 1013.48
998.15 999.22 999.37 999.36 999.95 1000.21 1000.68 1001.22 1001.61 1002.05 1002.47 1003.49 1004.81 1006.60 1007.28 1007.81 1008.35 1008.33 1008.11 1008.13 1007.69 1007.85 1008.58 1009.26 1009.54 1009.71 1009.85 1010.19 1010.67 1011.07 1011.27 1011.38 1011.33 1011.45 1011.48 1011.66 1011.75 1011.91 1012.18 1012.11 1012.25 1012.42 1012.44
997.95 998.80 999.35 999.10 999.60 999.99 1000.33 1000.97 1001.50 1001.90 1002.21 1002.88 1004.17 1006.84 1007.40 1007.24 1006.69 1007.01 1007.07 1006.92 1006.89 1006.94 1007.22 1007.69 1007.97 1008.54 1009.01 1009.41 1009.69 1010.12 1010.41 1010.55 1010.76 1011.05 1010.86 1010.80 1011.07 1011.33 1011.42 1011.49 1011.55 1011.61 1011.63
998.40 998.78 999.11 999.16 999.57 1000.25 1000.74 1000.81 1001.24 1001.74 1002.17 1002.72 1003.77 1005.89 1007.00 1006.12 1005.62 1005.90 1006.12 1006.44 1006.77 1006.78 1007.07 1007.54 1007.73 1007.93 1008.24 1008.63 1008.78 1009.02 1009.24 1009.58 1009.88 1010.26 1010.55 1010.41 1010.31 1010.41 1010.59 1010.64 1010.71 1010.72 1010.69
998.80 999.04 999.30 999.62 999.98 1000.33 1000.71 1000.98 1001.26 1001.95 1002.09 1002.66 1003.42 1004.68 1005.64 1005.57 1005.09 1005.02 1005.33 1005.87 1006.34 1006.63 1006.85 1007.15 1007.38 1007.42 1007.69 1008.07 1008.31 1008.59 1008.74 1008.91 1009.06 1009.27 1009.79 1009.83 1009.65 1009.61 1009.75 1009.51 1009.52 1009.58 1009.73
1000.17 1000.18 1000.06 1000.36 1000.94 1001.13 1001.45 1001.39 1001.78 1002.13 1002.76 1002.93 1003.56 1004.08 1004.63 1005.01 1005.05 1005.21 1005.46 1005.74 1005.98 1006.33 1006.69 1006.95 1007.14 1007.31 1007.60 1007.76 1007.80 1007.96 1008.22 1008.94 1009.19 1009.19 1008.79 1009.04 1009.08 1008.98 1008.87 1008.66 1008.85 1008.89 1008.85
1002.72 1002.88 1003.05 1003.20 1002.84 1002.79 1003.00 1003.31 1003.83 1003.75 1003.70 1004.22 1004.72 1004.99 1005.11 1005.38 1005.75 1006.14 1006.38 1006.51 1006.42 1006.51 1006.84 1007.07 1007.31 1007.51 1007.87 1009.36 1009.89 1010.05 1009.76 1009.71 1009.51 1009.58 1009.25 1008.90 1008.59 1008.30 1008.26 1008.15 1008.09 1008.08 1007.94
Wind_Speed
15 14 15 14 14 13 12 11 11 10 9 9 8 9 9 8 8 7 6 7 9 7 4 5 7 7 5 6 4 5 6 5 5 4 5 5 4 4 6 7 8 9 12
15 15 15 15 14 13 12 11 10 9 9 9 9 9 8 8 8 8 9 8 9 8 6 3 3 4 6 5 4 5 7 6 7 10 3 3 5 5 7 8 7 8 11
16 16 15 14 13 12 11 10 10 10 10 9 8 8 8 7 7 8 7 8 6 7 7 5 4 4 6 6 5 7 6 6 10 8 4 3 3 5 10 9 10 10 7
16 15 14 13 12 11 11 11 11 10 10 9 8 8 7 6 6 6 5 4 3 6 5 4 4 5 8 7 8 7 9 9 10 9 6 5 3 6 9 11 10 8 9
14 14 13 12 12 12 11 11 10 10 9 9 8 6 5 4 1 3 5 6 7 6 5 4 4 6 7 7 5 8 12 9 9 9 7 6 6 5 9 8 11 10 8
13 13 13 12 12 11 11 11 10 10 9 8 7 6 5 2 6 5 7 4 9 7 5 5 4 5 6 9 7 11 13 13 13 9 6 9 8 9 10 11 13 11 6
13 13 12 11 10 10 11 12 11 10 8 7 6 5 4 6 4 3 7 2 6 6 5 4 3 2 6 8 7 8 11 5 10 15 13 10 11 14 15 14 13 10 7
13 13 11 10 10 10 11 11 10 8 8 7 5 5 4 6 3 3 6 5 6 7 6 5 5 5 6 11 12 13 13 11 12 10 9 12 11 13 15 13 11 10 9
14 12 11 10 10 11 11 11 9 9 8 6 5 5 5 6 2 2 6 4 6 8 6 6 6 5 9 8 11 13 12 8 11 13 12 11 16 12 12 13 10 12 10
13 12 10 10 11 11 11 11 9 8 8 6 7 8 6 7 2 1 1 3 5 5 5 5 8 7 8 9 10 12 12 10 12 13 11 12 12 13 8 9 14 12 9
13 12 10 9 10 10 10 8 9 9 8 7 9 7 5 5 5 1 4 2 5 4 5 3 3 10 9 10 8 10 11 12 13 12 10 8 9 10 4 7 5 10 11
13 12 11 10 8 9 11 9 10 9 9 8 10 7 4 4 4 4 4 7 4 5 4 3 4 9 10 9 5 16 14 13 9 10 10 9 8 8 6 6 4 5 5
13 12 11 10 9 10 10 9 7 7 7 8 8 8 5 3 4 6 6 6 7 6 6 8 11 9 10 9 15 16 14 9 9 9 11 10 9 10 9 7 5 5 4
13 12 11 11 10 9 7 7 6 7 6 6 7 8 7 5 4 6 5 6 10 9 11 7 8 8 8 8 9 9 8 8 9 9 8 6 9 9 9 9 8 8 5
13 11 11 9 8 9 6 3 2 5 3 6 6 6 8 7 5 8 5 6 7 7 9 7 6 6 7 8 4 5 7 7 7 6 8 7 9 10 8 9 6 5 6
12 10 9 10 9 8 7 8 14 11 10 10 11 5 6 11 12 10 10 13 16 11 5 7 8 7 6 6 6 6 6 7 7 8 10 11 10 11 9 8 8 8 8
12 11 9 8 8 7 8 7 8 6 11 11 10 11 9 12 12 11 12 14 11 9 6 7 8 8 6 6 6 7 7 6 11 9 11 11 10 10 8 9 9 8 9
12 8 10 8 8 8 8 8 6 8 9 8 10 7 9 11 11 13 14 10 4 3 4 8 8 9 8 8 8 10 11 11 8 8 9 10 10 9 10 10 9 10 10
12 11 9 8 8 7 7 7 9 7 7 9 6 5 9 11 8 9 12 8 7 5 6 4 6 8 9 8 8 8 9 10 9 10 10 10 10 11 11 10 10 10 9
12 11 6 8 9 7 7 6 5 9 7 8 8 8 7 6 6 7 8 7 8 8 7 7 7 6 8 9 8 7 8 7 9 8 8 8 10 11 10 11 10 10 11
10 10 4 8 9 8 7 6 6 6 5 8 7 10 11 11 10 10 9 8 7 10 11 9 9 9 7 8 7 6 7 7 8 10 9 10 11 10 11 10 10 11 11
10 10 9 8 8 7 8 6 7 6 6 6 10 9 7 8 10 9 9 7 6 5 6 7 9 10 10 11 10 11 11 11 11 10 10 10 11 11 11 12 12 12 12
8 9 9 7 7 7 5 7 7 6 6 6 10 10 10 8 8 8 8 8 7 6 6 7 7 7 7 7 8 10 11 11 11 11 11 12 11 11 12 13 13 13 13
7 8 8 6 4 7 7 6 6 3 6 7 7 10 9 7 4 6 6 7 6 6 6 6 7 8 8 8 8 9 9 9 9 10 14 12 13 12 13 14 14 16 15
6 6 5 5 6 3 5 5 4 8 5 5 6 5 7 5 4 2 3 2 3 4 5 4 5 6 8 9 9 10 7 5 9 7 8 13 15 16 14 13 14 15 17
11 12 11 10 10 8 7 9 10 8 6 6 6 6 6 6 8 7 5 5 1 2 1 2 1 7 11 16 15 13 11 7 6 7 11 13 13 12 13 16 20 15 18
Wind_Direction
142 135 134 130 130 134 137 139 140 143 147 158 165 174 174 177 184 192 206 183 208 196 170 233 228 211 198 198 198 192 169 176 140 113 85 74 69 105 92 97 122 125 132
136 135 131 131 133 135 138 139 142 143 153 152 162 169 174 180 184 198 210 211 210 184 175 192 254 211 206 188 178 231 172 173 157 129 103 79 63 80 90 86 93 112 131
137 134 134 135 137 137 138 138 142 145 147 153 164 172 181 188 185 209 220 216 205 172 162 163 239 247 196 180 194 185 182 147 130 136 106 86 70 99 89 82 85 92 107
138 136 135 136 136 137 138 144 148 149 151 160 169 168 165 183 191 213 202 179 134 107 160 193 207 225 230 186 187 200 155 144 135 126 116 103 95 101 100 109 95 93 99
137 136 135 135 138 141 146 152 147 152 158 160 161 158 149 175 150 282 188 163 151 145 172 202 220 230 252 174 195 152 150 141 135 138 119 123 125 121 118 118 104 103 68
140 136 139 142 145 146 151 151 154 153 160 157 157 151 145 126 58 340 310 165 156 156 171 197 215 224 185 196 239 161 164 154 150 142 132 143 132 120 129 132 128 129 113
144 142 144 147 149 154 159 154 159 163 161 152 146 133 135 116 55 302 280 214 142 158 159 157 161 196 192 181 100 89 108 103 153 158 148 151 142 149 144 141 142 137 113
146 146 149 156 150 155 160 162 159 156 157 152 138 126 128 82 38 219 249 144 158 141 136 147 139 154 164 176 168 151 148 157 144 155 145 146 144 152 149 137 122 107 109
150 150 152 149 153 156 165 165 157 154 155 147 126 132 102 89 92 228 271 137 123 123 127 135 139 140 140 163 162 144 151 106 50 81 113 114 126 133 137 129 133 137 135
152 149 150 153 158 166 158 157 157 156 156 141 128 91 86 113 136 264 290 88 96 98 99 120 136 141 149 154 150 141 132 125 116 105 100 93 111 115 143 160 154 145 144
150 142 146 154 162 158 155 150 158 163 147 139 115 98 100 109 116 28 337 225 135 119 124 116 118 141 151 144 148 149 133 135 121 121 116 113 128 137 131 136 110 158 167
149 146 148 153 155 151 149 154 164 162 154 148 128 125 106 115 78 99 40 46 106 122 117 108 122 144 144 129 129 117 125 134 130 136 134 136 148 141 137 127 162 268 54
153 149 150 159 147 145 152 154 161 172 171 165 163 130 131 132 128 79 80 86 89 120 98 89 106 107 108 93 128 130 143 144 143 145 152 157 157 149 140 135 184 184 96
153 154 156 155 149 152 152 156 171 172 180 186 172 147 135 145 156 148 135 113 98 95 100 101 100 92 89 108 131 155 143 150 147 144 147 148 140 160 162 166 183 193 197
152 157 158 148 162 148 129 82 149 133 195 176 162 153 152 165 163 107 136 151 127 123 121 123 113 109 118 131 138 133 136 137 143 148 141 146 152 165 168 188 192 175 202
157 164 166 156 161 144 147 134 57 50 46 38 41 38 97 102 115 104 104 106 120 142 130 128 121 121 130 123 122 124 133 152 147 148 159 163 170 170 176 184 195 195 206
171 160 148 159 154 153 157 149 143 85 62 47 52 48 49 121 119 119 119 129 140 139 140 135 137 144 141 136 137 142 151 166 174 170 168 172 174 176 175 193 201 202 209
172 153 170 155 148 159 166 149 163 163 161 143 57 54 90 117 122 128 130 120 124 131 144 157 163 159 162 160 173 170 174 166 173 162 171 175 180 185 195 201 202 207 215
170 176 182 158 155 137 163 174 162 151 151 129 126 89 83 72 83 141 169 149 156 148 157 179 184 159 167 172 188 171 168 174 174 174 178 186 192 198 200 210 207 213 218
176 163 192 158 137 163 156 174 168 146 154 135 154 148 137 130 148 166 196 176 171 163 171 176 193 206 171 180 184 186 185 173 187 194 192 195 201 212 208 210 223 216 213
175 156 229 168 159 168 156 168 166 169 156 143 146 143 163 168 168 177 186 184 191 172 168 181 188 189 201 181 175 182 193 205 207 205 205 202 205 209 221 225 225 230 242
175 157 183 183 162 171 159 162 169 180 166 154 122 139 179 228 166 180 193 189 197 188 169 181 179 180 190 194 199 200 202 200 203 211 224 216 212 218 225 226 234 238 242
162 163 181 181 167 134 166 173 163 173 172 163 134 145 186 230 162 173 181 185 196 196 186 190 203 193 196 200 211 211 209 209 211 211 219 228 227 224 226 232 237 241 244
159 171 165 169 161 170 174 190 180 146 161 166 152 148 182 202 215 160 169 169 178 196 196 199 211 218 195 207 208 214 221 224 221 217 223 231 235 227 238 241 239 243 250
98 98 113 124 131 167 116 152 171 155 173 146 135 151 154 161 163 133 147 166 176 189 193 212 217 213 229 245 244 233 235 181 251 301 260 230 246 253 254 246 244 256 258
71 73 65 47 42 56 66 61 42 35 85 101 90 75 69 73 57 46 38 31 344 170 214 216 244 21 20 43 23 15 24 6 290 257 258 263 266 254 247 252 255 258 259